| time (UTC) | temp C | wind direction | speed KPH | gust KPH | rain 1hr cm | rain 24hr cm | rain mn cm | humidity % | barometer mb |
| 20260901030057 | 21 | 320 | 1.6 | 4.8 | 0.00 | 0.00 | 0.00 | 56 | 1007.6 |
| 20260901024552 | 21 | 298 | 0.0 | 8.0 | 0.00 | 0.00 | 0.00 | 54 | 1007.5 |
| 20260901023054 | 22 | 275 | 1.6 | 6.4 | 0.00 | 0.00 | 0.00 | 53 | 1007.3 |
| 20260901021544 | 23 | 284 | 1.6 | 11.3 | 0.00 | 0.00 | 0.00 | 50 | 1007.2 |
| 20260901020039 | 25 | 288 | 3.2 | 8.0 | 0.00 | 0.00 | 0.00 | 48 | 1007.0 |
| 20260901014535 | 26 | 279 | 6.4 | 16.1 | 0.00 | 0.00 | 0.00 | 45 | 1007.0 |
| 20260901013039 | 27 | 300 | 1.6 | 8.0 | 0.00 | 0.00 | 0.00 | 42 | 1006.7 |
| 20260901011526 | 27 | 273 | 0.0 | 4.8 | 0.00 | 0.00 | 0.00 | 40 | 1006.7 |
| 20260901010029 | 28 | 229 | 1.6 | 6.4 | 0.00 | 0.00 | 0.00 | 40 | 1006.8 |
| 20260901004520 | 28 | 261 | 0.0 | 11.3 | 0.00 | 0.00 | 0.00 | 38 | 1006.9 |
| 20260901003014 | 27 | 281 | 0.0 | 3.2 | 0.00 | 0.00 | 0.00 | 40 | 1006.8 |
| 20260901001512 | 27 | 281 | 0.0 | 3.2 | 0.00 | 0.00 | 0.00 | 37 | 1006.9 |
| 20260901000008 | 27 | 275 | 0.0 | 8.0 | 0.00 | 0.00 | 0.00 | 36 | 1006.9 |
| 20260831234601 | 27 | 303 | 0.0 | 4.8 | 0.00 | 0.00 | 0.00 | 37 | 1007.1 |
| 20260831233056 | 27 | 65 | 0.0 | 3.2 | 0.00 | 0.00 | 0.00 | 37 | 1007.1 |
| 20260831231554 | 27 | 289 | 0.0 | 6.4 | 0.00 | 0.00 | 0.00 | 38 | 1007.1 |
| 20260831230051 | 27 | 274 | 1.6 | 4.8 | 0.00 | 0.00 | 0.00 | 37 | 1007.3 |
| 20260831224542 | 27 | 225 | 1.6 | 4.8 | 0.00 | 0.00 | 0.00 | 35 | 1007.6 |
| 20260831223038 | 28 | 313 | 0.0 | 8.0 | 0.00 | 0.00 | 0.00 | 36 | 1007.5 |
| 20260831221541 | 27 | 295 | 0.0 | 8.0 | 0.00 | 0.00 | 0.00 | 36 | 1007.6 |
| 20260831220029 | 27 | 79 | 0.0 | 6.4 | 0.00 | 0.00 | 0.00 | 41 | 1007.7 |
| 20260831214524 | 27 | 290 | 0.0 | 3.2 | 0.00 | 0.00 | 0.00 | 42 | 1007.9 |
| 20260831213023 | 26 | 331 | 0.0 | 4.8 | 0.00 | 0.00 | 0.00 | 43 | 1008.1 |
| 20260831211516 | 25 | 282 | 1.6 | 6.4 | 0.00 | 0.00 | 0.00 | 44 | 1008.2 |
| 20260831210011 | 25 | 186 | 1.6 | 6.4 | 0.00 | 0.00 | 0.00 | 46 | 1008.3 |
| 20260831204508 | 24 | 32 | 1.6 | 4.8 | 0.00 | 0.00 | 0.00 | 47 | 1008.5 |
| 20260831203003 | 23 | 51 | 1.6 | 4.8 | 0.00 | 0.00 | 0.00 | 48 | 1008.7 |
| 20260831201602 | 23 | 279 | 0.0 | 6.4 | 0.00 | 0.00 | 0.00 | 49 | 1009.0 |
| 20260831200054 | 23 | 345 | 0.0 | 6.4 | 0.00 | 0.00 | 0.00 | 50 | 1009.1 |
| 20260831194555 | 22 | 337 | 1.6 | 6.4 | 0.00 | 0.00 | 0.00 | 50 | 1009.4 |
| 20260831193046 | 21 | 98 | 0.0 | 4.8 | 0.00 | 0.00 | 0.00 | 53 | 1009.6 |
| 20260831191550 | 21 | 35 | 0.0 | 4.8 | 0.00 | 0.00 | 0.00 | 54 | 1009.8 |
| 20260831190036 | 20 | 229 | 3.2 | 6.4 | 0.00 | 0.00 | 0.00 | 54 | 1010.0 |
| 20260831184532 | 20 | 113 | 0.0 | 6.4 | 0.00 | 0.00 | 0.00 | 56 | 1010.1 |
| 20260831183028 | 19 | 344 | 0.0 | 4.8 | 0.00 | 0.00 | 0.00 | 56 | 1010.3 |
| 20260831181523 | 18 | 283 | 0.0 | 4.8 | 0.00 | 0.00 | 0.00 | 56 | 1010.3 |
| 20260831180018 | 18 | 34 | 1.6 | 4.8 | 0.00 | 0.00 | 0.00 | 55 | 1010.4 |
| 20260831174515 | 18 | 85 | 0.0 | 3.2 | 0.00 | 0.00 | 0.00 | 55 | 1010.5 |
| 20260831173014 | 17 | 44 | 0.0 | 4.8 | 0.00 | 0.00 | 0.00 | 55 | 1010.7 |
| 20260831171511 | 16 | 13 | 0.0 | 4.8 | 0.00 | 0.00 | 0.00 | 53 | 1010.9 |
| 20260831170001 | 16 | 46 | 0.0 | 4.8 | 0.00 | 0.00 | 0.00 | 50 | 1010.9 |
| 20260831164608 | 15 | 27 | 3.2 | 6.4 | 0.00 | 0.00 | 0.00 | 46 | 1011.1 |
| 20260831163056 | 14 | 30 | 0.0 | 6.4 | 0.00 | 0.00 | 0.00 | 37 | 1011.3 |
| 20260831161547 | 14 | 30 | 1.6 | 4.8 | 0.00 | 0.00 | 0.00 | 29 | 1011.4 |
| 20260831160047 | 13 | 30 | 0.0 | 4.8 | 0.00 | 0.00 | 0.00 | 13 | 1011.4 |
| 20260831154539 | 12 | 27 | 0.0 | 4.8 | 0.00 | 0.00 | 0.00 | 100 | 1011.4 |
| 20260831153042 | 12 | 11 | 0.0 | 3.2 | 0.00 | 0.00 | 0.00 | 100 | 1011.4 |
| 20260831151530 | 11 | 11 | 0.0 | 4.8 | 0.00 | 0.00 | 0.00 | 100 | 1011.6 |
| 20260831150033 | 10 | 18 | 0.0 | 1.6 | 0.00 | 0.00 | 0.00 | 100 | 1011.4 |
| 20260831144521 | 10 | 18 | 0.0 | 0.0 | 0.00 | 0.00 | 0.00 | 100 | 1011.6 |
| 20260831143017 | 9 | 18 | 0.0 | 0.0 | 0.00 | 0.00 | 0.00 | 100 | 1011.5 |
| 20260831141512 | 9 | 18 | 0.0 | 0.0 | 0.00 | 0.00 | 0.00 | 100 | 1011.4 |
| 20260831140012 | 9 | 18 | 0.0 | 1.6 | 0.00 | 0.00 | 0.00 | 100 | 1011.5 |
| 20260831134504 | 9 | 18 | 0.0 | 0.0 | 0.00 | 0.00 | 0.00 | 100 | 1011.5 |
| 20260831133100 | 9 | 18 | 0.0 | 0.0 | 0.00 | 0.00 | 0.00 | 100 | 1011.5 |
| 20260831131555 | 10 | 18 | 0.0 | 0.0 | 0.00 | 0.00 | 0.00 | 100 | 1011.6 |
| 20260831130051 | 10 | 18 | 0.0 | 1.6 | 0.00 | 0.00 | 0.00 | 5 | 1011.7 |
| 20260831124558 | 10 | 18 | 0.0 | 0.0 | 0.00 | 0.00 | 0.00 | 7 | 1011.8 |
| 20260831123144 | 10 | 18 | 0.0 | 0.0 | 0.00 | 0.00 | 0.00 | 7 | 1011.8 |
| 20260831121537 | 11 | 18 | 0.0 | 0.0 | 0.00 | 0.00 | 0.00 | 7 | 1011.9 |
| 20260831120041 | 11 | 18 | 0.0 | 0.0 | 0.00 | 0.00 | 0.00 | 8 | 1011.9 |
| 20260831114538 | 11 | 18 | 0.0 | 0.0 | 0.00 | 0.00 | 0.00 | 10 | 1012.0 |
| 20260831113026 | 11 | 18 | 0.0 | 0.0 | 0.00 | 0.00 | 0.00 | 13 | 1012.1 |
| 20260831111522 | 11 | 18 | 0.0 | 0.0 | 0.00 | 0.00 | 0.00 | 13 | 1012.1 |
| 20260831110021 | 11 | 18 | 0.0 | 0.0 | 0.00 | 0.00 | 0.00 | 16 | 1012.2 |
| 20260831104529 | 11 | 18 | 0.0 | 0.0 | 0.00 | 0.00 | 0.00 | 16 | 1012.2 |
| 20260831103021 | 11 | 18 | 0.0 | 0.0 | 0.00 | 0.00 | 0.00 | 18 | 1012.2 |
| 20260831101515 | 12 | 18 | 0.0 | 0.0 | 0.00 | 0.00 | 0.00 | 25 | 1012.3 |
| 20260831100012 | 12 | 18 | 0.0 | 0.0 | 0.00 | 0.00 | 0.00 | 24 | 1012.5 |
| 20260831094510 | 12 | 18 | 0.0 | 0.0 | 0.00 | 0.00 | 0.00 | 30 | 1012.6 |
| 20260831093006 | 12 | 18 | 0.0 | 0.0 | 0.00 | 0.00 | 0.00 | 33 | 1012.7 |
| 20260831091505 | 12 | 18 | 0.0 | 0.0 | 0.00 | 0.00 | 0.00 | 37 | 1012.8 |
| 20260831090106 | 13 | 18 | 0.0 | 0.0 | 0.00 | 0.00 | 0.00 | 39 | 1013.1 |
| 20260831084559 | 13 | 18 | 0.0 | 1.6 | 0.00 | 0.00 | 0.00 | 39 | 1013.2 |
| 20260831083103 | 13 | 18 | 0.0 | 0.0 | 0.00 | 0.00 | 0.00 | 41 | 1013.3 |
| 20260831081601 | 13 | 18 | 0.0 | 0.0 | 0.00 | 0.00 | 0.00 | 45 | 1013.3 |
| 20260831080053 | 13 | 18 | 0.0 | 0.0 | 0.00 | 0.00 | 0.00 | 49 | 1013.4 |
| 20260831074550 | 13 | 18 | 0.0 | 0.0 | 0.00 | 0.00 | 0.00 | 51 | 1013.6 |
| 20260831073055 | 13 | 18 | 0.0 | 0.0 | 0.00 | 0.00 | 0.00 | 54 | 1013.6 |
| 20260831071545 | 14 | 18 | 0.0 | 0.0 | 0.00 | 0.00 | 0.00 | 56 | 1013.8 |
| 20260831070049 | 14 | 18 | 0.0 | 1.6 | 0.00 | 0.00 | 0.00 | 58 | 1013.9 |
| 20260831064540 | 15 | 18 | 0.0 | 3.2 | 0.00 | 0.00 | 0.00 | 59 | 1014.1 |
| 20260831063032 | 15 | 18 | 0.0 | 1.6 | 0.00 | 0.00 | 0.00 | 61 | 1014.1 |
| 20260831061528 | 15 | 18 | 0.0 | 1.6 | 0.00 | 0.00 | 0.00 | 63 | 1014.3 |
| 20260831060024 | 15 | 18 | 0.0 | 3.2 | 0.00 | 0.00 | 0.00 | 64 | 1014.4 |
| 20260831054523 | 15 | 18 | 0.0 | 3.2 | 0.00 | 0.00 | 0.00 | 64 | 1014.4 |
| 20260831053015 | 16 | 18 | 0.0 | 4.8 | 0.00 | 0.00 | 0.00 | 64 | 1014.6 |
| 20260831051510 | 16 | 18 | 0.0 | 1.6 | 0.00 | 0.00 | 0.00 | 64 | 1014.7 |
| 20260831050005 | 16 | 18 | 0.0 | 4.8 | 0.00 | 0.00 | 0.00 | 63 | 1014.8 |
| 20260831044502 | 16 | 19 | 1.6 | 4.8 | 0.00 | 0.00 | 0.00 | 63 | 1014.9 |
| 20260831043057 | 17 | 21 | 0.0 | 6.4 | 0.00 | 0.00 | 0.00 | 62 | 1015.0 |
| 20260831041603 | 17 | 17 | 1.6 | 6.4 | 0.00 | 0.00 | 0.00 | 61 | 1014.9 |
| 20260831040049 | 17 | 14 | 1.6 | 6.4 | 0.00 | 0.00 | 0.00 | 60 | 1014.9 |
| 20260831034544 | 17 | 16 | 1.6 | 4.8 | 0.00 | 0.00 | 0.00 | 60 | 1014.8 |
| 20260831033039 | 18 | 19 | 1.6 | 6.4 | 0.00 | 0.00 | 0.00 | 59 | 1014.7 |
| 20260831031540 | 18 | 5 | 1.6 | 12.9 | 0.00 | 0.00 | 0.00 | 60 | 1014.8 |